TimeCST,TemperatureF,Dew PointF,Humidity,Sea Level PressureIn,VisibilityMPH,Wind Direction,Wind SpeedMPH,Gust SpeedMPH,PrecipitationIn,Events,Conditions,WindDirDegrees,DateUTC
12:13 AM,33.8,33.8,100,29.91,0.5,Calm,Calm,-,N/A,Fog,Fog,0,2012-11-07 06:13:00
12:56 AM,34.0,34.0,100,29.95,0.5,Calm,Calm,-,N/A,Fog,Fog,0,2012-11-07 06:56:00
1:17 AM,35.6,35.6,100,29.93,0.2,Calm,Calm,-,N/A,Fog,Fog,0,2012-11-07 07:17:00
1:25 AM,35.6,35.6,100,29.94,0.5,Calm,Calm,-,N/A,Fog,Fog,0,2012-11-07 07:25:00
1:56 AM,34.9,34.9,100,29.96,0.8,Calm,Calm,-,N/A,,Overcast,0,2012-11-07 07:56:00
2:12 AM,35.6,35.6,100,29.96,0.5,Calm,Calm,-,N/A,Fog,Fog,0,2012-11-07 08:12:00
2:24 AM,35.6,35.6,100,29.96,1.0,Calm,Calm,-,N/A,,Overcast,0,2012-11-07 08:24:00
2:30 AM,35.6,35.6,100,29.96,1.5,Calm,Calm,-,N/A,,Overcast,0,2012-11-07 08:30:00
2:39 AM,33.8,33.8,100,29.96,2.5,Calm,Calm,-,N/A,,Overcast,0,2012-11-07 08:39:00
2:47 AM,33.8,33.8,100,29.96,3.0,Calm,Calm,-,N/A,,Overcast,0,2012-11-07 08:47:00
2:56 AM,34.0,34.0,100,29.99,3.0,Calm,Calm,-,N/A,,Overcast,0,2012-11-07 08:56:00
3:33 AM,33.8,33.8,100,29.98,3.0,Calm,Calm,-,N/A,,Overcast,0,2012-11-07 09:33:00
3:42 AM,35.6,35.6,100,29.98,2.5,Calm,Calm,-,N/A,,Overcast,0,2012-11-07 09:42:00
3:56 AM,34.9,34.9,100,30.00,2.5,Calm,Calm,-,N/A,,Overcast,0,2012-11-07 09:56:00
4:56 AM,34.9,34.9,100,30.02,3.0,Calm,Calm,-,N/A,,Overcast,0,2012-11-07 10:56:00
5:04 AM,35.6,35.6,100,30.01,3.0,Calm,Calm,-,N/A,,Overcast,0,2012-11-07 11:04:00
5:56 AM,34.9,34.9,100,30.04,3.0,Calm,Calm,-,N/A,,Overcast,0,2012-11-07 11:56:00
6:27 AM,35.6,35.6,100,30.04,2.5,Calm,Calm,-,N/A,,Overcast,0,2012-11-07 12:27:00
6:35 AM,35.6,35.6,100,30.04,3.0,Calm,Calm,-,N/A,,Overcast,0,2012-11-07 12:35:00
6:49 AM,35.6,35.6,100,30.05,2.5,Calm,Calm,-,N/A,,Overcast,0,2012-11-07 12:49:00
6:56 AM,34.9,34.9,100,30.06,2.5,Calm,Calm,-,N/A,,Overcast,0,2012-11-07 12:56:00
7:17 AM,35.6,35.6,100,30.06,1.5,Calm,Calm,-,N/A,,Overcast,0,2012-11-07 13:17:00
7:37 AM,35.6,35.6,100,30.07,1.8,Calm,Calm,-,N/A,,Overcast,0,2012-11-07 13:37:00
7:46 AM,35.6,35.6,100,30.07,2.5,Calm,Calm,-,N/A,,Overcast,0,2012-11-07 13:46:00
7:56 AM,34.9,34.9,100,30.09,2.0,Calm,Calm,-,N/A,,Overcast,0,2012-11-07 13:56:00
8:04 AM,35.6,35.6,100,30.08,2.0,Calm,Calm,-,N/A,,Overcast,0,2012-11-07 14:04:00
8:56 AM,36.0,36.0,100,30.11,2.5,Calm,Calm,-,N/A,,Overcast,0,2012-11-07 14:56:00
9:20 AM,35.6,35.6,100,30.10,3.0,Calm,Calm,-,N/A,,Overcast,0,2012-11-07 15:20:00
9:28 AM,35.6,35.6,100,30.10,2.5,Calm,Calm,-,N/A,,Overcast,0,2012-11-07 15:28:00
9:56 AM,36.9,36.0,97,30.13,3.0,Calm,Calm,-,N/A,,Overcast,0,2012-11-07 15:56:00
10:34 AM,37.4,37.4,100,30.11,2.5,Calm,Calm,-,N/A,,Overcast,0,2012-11-07 16:34:00
10:43 AM,37.4,35.6,93,30.11,3.0,Calm,Calm,-,N/A,,Overcast,0,2012-11-07 16:43:00
10:56 AM,37.9,36.0,93,30.13,4.0,Calm,Calm,-,N/A,,Overcast,0,2012-11-07 16:56:00
11:49 AM,37.4,33.8,87,30.10,8.0,Calm,Calm,-,0.01,,Overcast,0,2012-11-07 17:49:00
11:56 AM,37.9,34.9,89,30.12,8.0,Calm,Calm,-,0.01,,Overcast,0,2012-11-07 17:56:00
12:56 PM,37.9,34.9,89,30.12,10.0,Calm,Calm,-,N/A,,Overcast,0,2012-11-07 18:56:00
1:56 PM,37.9,34.0,86,30.12,10.0,Calm,Calm,-,N/A,,Overcast,0,2012-11-07 19:56:00
2:56 PM,38.8,34.9,86,30.12,10.0,Calm,Calm,-,N/A,,Overcast,0,2012-11-07 20:56:00
3:56 PM,37.9,34.9,89,30.13,9.0,Calm,Calm,-,N/A,,Overcast,0,2012-11-07 21:56:00
4:56 PM,36.9,34.9,93,30.15,8.0,West,6.9,-,N/A,,Overcast,270,2012-11-07 22:56:00
5:35 PM,37.4,33.8,87,30.14,9.0,NW,6.9,-,N/A,,Overcast,310,2012-11-07 23:35:00
5:56 PM,36.0,34.0,93,30.16,9.0,Calm,Calm,-,N/A,,Overcast,0,2012-11-07 23:56:00
6:39 PM,35.6,33.8,93,30.14,8.0,Calm,Calm,-,N/A,,Overcast,0,2012-11-08 00:39:00
6:56 PM,34.9,34.0,97,30.16,7.0,Calm,Calm,-,N/A,,Overcast,0,2012-11-08 00:56:00
7:56 PM,32.0,32.0,100,30.17,3.0,Calm,Calm,-,N/A,,Overcast,0,2012-11-08 01:56:00
8:03 PM,32.0,32.0,100,30.15,2.5,Calm,Calm,-,N/A,,Overcast,0,2012-11-08 02:03:00
8:19 PM,32.0,32.0,100,30.15,3.0,Calm,Calm,-,N/A,,Overcast,0,2012-11-08 02:19:00
8:56 PM,32.0,32.0,100,30.17,3.0,Calm,Calm,-,N/A,,Overcast,0,2012-11-08 02:56:00
9:14 PM,30.2,30.2,100,30.15,2.5,Calm,Calm,-,N/A,,Mostly Cloudy,0,2012-11-08 03:14:00
9:27 PM,30.2,30.2,100,30.15,1.5,Calm,Calm,-,N/A,,Mostly Cloudy,0,2012-11-08 03:27:00
9:34 PM,30.2,30.2,100,30.15,3.0,Calm,Calm,-,N/A,,Partly Cloudy,0,2012-11-08 03:34:00
9:43 PM,30.2,30.2,100,30.15,2.5,Calm,Calm,-,N/A,,Clear,0,2012-11-08 03:43:00
9:56 PM,30.0,30.0,100,30.17,1.8,Calm,Calm,-,N/A,,Clear,0,2012-11-08 03:56:00
10:06 PM,28.4,28.4,100,30.15,1.0,Calm,Calm,-,N/A,,Clear,0,2012-11-08 04:06:00
10:09 PM,28.4,28.4,100,30.15,0.5,Calm,Calm,-,N/A,Fog,Light Freezing Fog,0,2012-11-08 04:09:00
10:18 PM,28.4,28.4,100,30.15,0.5,Calm,Calm,-,N/A,Fog,Light Freezing Fog,0,2012-11-08 04:18:00
10:23 PM,28.4,28.4,100,30.15,1.0,Calm,Calm,-,N/A,,Mist,0,2012-11-08 04:23:00
10:25 PM,28.4,28.4,100,30.15,1.5,Calm,Calm,-,N/A,,Mostly Cloudy,0,2012-11-08 04:25:00
10:33 PM,28.4,28.4,100,30.14,2.5,Calm,Calm,-,N/A,,Scattered Clouds,0,2012-11-08 04:33:00
10:36 PM,28.4,28.4,100,30.14,1.0,Calm,Calm,-,N/A,,Mist,0,2012-11-08 04:36:00
10:41 PM,28.4,28.4,100,30.14,0.5,Calm,Calm,-,N/A,Fog,Light Freezing Fog,0,2012-11-08 04:41:00
10:56 PM,28.0,28.0,100,30.16,0.2,Calm,Calm,-,N/A,Fog,Light Freezing Fog,0,2012-11-08 04:56:00
11:34 PM,26.6,26.6,100,30.14,0.2,Calm,Calm,-,N/A,Fog,Light Freezing Fog,0,2012-11-08 05:34:00
11:56 PM,27.1,27.1,100,30.16,0.2,Calm,Calm,-,N/A,Fog,Light Freezing Fog,0,2012-11-08 05:56:00